OneWeb SL0335

operational
NORAD ID: 49201 Int'l Des: 2021-083 Owner: ONEWEBN Country: UK Constellation: oneweb
LEOCIRCULARPOLARONEWEB_TYPE

About OneWeb SL0335

Description loading...

Live Position

Loading 3D Globe...

Upcoming Passes

Altitude History

Altitude vs Time

uPlot chart will show altitude changes over time

Two-Line Element Set

1 49201U 21083R 25302.46932146 .00000333 00000-0 87783-3 0 9992
2 49201 87.9020 6.1018 0001667 95.5624 264.5695 13.13472297200638
Epoch: Oct 29, 2025 • Age: 11 hours

Current Status

Altitude 1237.3 km
Velocity 7.24 km/s
Sub-Earth Point -70.44°S, 6.48°W
Launch Date Sep 14, 2021
Age 4.1 years
Type internet

Technical Details

Classification Payload
Mass 148.00 kg
Dry Mass 140.00 kg
Total Mass 148.00 kg
Length 1.30 m
Diameter 1.00 m
Span 5.00 m
Shape Trapezoid+2 pan
Manufacturer ONEWUS
Bus Type ARROW
Phase Status In Orbit
Owner/State ONEWEBN/UK

Large Constellations

Loading constellations...